Regional Weather Roundup
Issued by NWS

Home | Current Version | Previous Version | Text Only | Print | Product List | Glossary Off
Versions: 1 2 3 4 5 6 7 8 9 10 11 12 13 14 15 16 17 18 19 20 21 22 23 24 25 26 27 28 29 30 31 32 33 34 35 36 37 38 39 40 41 42 43 44 45 46 47 48 49 50

000
ASUS45 KCYS 231010
RWRWY

WYOMING REGIONAL WEATHER ROUNDUP
NATIONAL WEATHER SERVICE CHEYENNE WY
400 AM MDT MON OCT 23 2017

NOTE:  "FAIR" INDICATES FEW OR NO CLOUDS BELOW 12,000 FEET
WITH NO SIGNIFICANT WEATHER AND/OR OBSTRUCTIONS TO VISIBILITY.

WYZ001-231100-
YELLOWSTONE NATIONAL PARK

CITY           SKY/WX    TMP DP  RH WIND       PRES   REMARKS
LK YELLOWSTONE   N/A     28  20  71 VRB5      30.46R WCI  23
W YELLOWSTONE  NOT AVBL

$$
WYZ002>013-054>058-071-098>099-231100-
NORTHERN WYOMING

CITY           SKY/WX    TMP DP  RH WIND       PRES   REMARKS
JACKSON        CLOUDY    41  23  48 W12       30.44R
CODY           FAIR      47  16  29 W13G23    30.34R
GREYBULL       FAIR      47  17  30 NW12      30.29R
WORLAND        MOCLDY    46  24  42 NW12G21   30.30R
SHERIDAN       FAIR      45  22  40 NW15      30.27R
BUFFALO        FAIR      42  17  36 NW17      30.28R
GILLETTE       FAIR      41  18  39 NW13      30.24R
HULETT         FAIR      45  19  36 NW9G23    30.21R
NEWCASTLE      FAIR      41  19  42 NW13G20   30.20R

$$
WYZ014>020-022>026-101>103-231100-
CENTRAL WYOMING

CITY           SKY/WX    TMP DP  RH WIND       PRES   REMARKS
BIG PINEY      FAIR      44  26  49 N20       30.42R
PINEDALE       FAIR      41  30  65 NW18      30.41R
DUBOIS         FAIR      36  27  69 NW23G36   30.34S WCI  24
LANDER         FAIR      40  31  70 E8        30.29R WCI  34
RIVERTON       FAIR      39  30  70 E5        30.31R
CASPER         MOCLDY    42  33  70 VRB5      30.29R
DOUGLAS        LGT RAIN  40  33  76 W9        30.29R WCI  34

$$
WYZ021-027>030-104>119-231100-
SOUTHERN WYOMING

CITY           SKY/WX    TMP DP  RH WIND       PRES   REMARKS
EVANSTON       FAIR      45  32  60 W18       30.50R
KEMMERER       FAIR      43  32  65 W28G36    30.43S
FORT BRIDGER   FAIR      46  32  58 W13       30.49S
ROCK SPRINGS   FAIR      46  30  53 W28G35    30.39S
DIXON          CLOUDY    49  32  51 W9        30.45R
RAWLINS        FAIR      46  29  51 W25G36    30.32R
SARATOGA       FAIR      46  30  53 W16G24    30.36F
LARAMIE        FAIR      47  27  45 W33G45    30.26F
CHEYENNE       FAIR      53  27  36 NW22G33   30.23R
TORRINGTON     CLOUDY    45  33  63 NW16G24   30.25R
PINE BLUFFS    CLOUDY    46  32  57 N23G32    30.25R

$$



USA.gov is the U.S. government's official web portal to all federal, state and local government web resources and services.